Dutzow, MO

1:53 PM CST on January 21, 2017 (GMT -0600)
Washington

Weather History for KFYG - September, 2012

Change the Weather History Date:

Saturday, September 15, 2012

  Actual Average (KSUS) Record (KSUS)
Temperature  
Mean Temperature 58 °F -  
Max Temperature 66 °F 78 °F 90 °F (1997)
Min Temperature 50 °F 53 °F 39 °F (2007)
Degree Days  
Heating Degree Days 7    
Growing Degree Days 8 (Base 50)    
Moisture  
Dew Point 55 °F    
Average Humidity 85    
Maximum Humidity 100    
Minimum Humidity 64    
Precipitation  
Precipitation 0.00 in - - ()
Sea Level Pressure  
Sea Level Pressure 30.23 in    
Wind  
Wind Speed 0 mph ()    
Max Wind Speed 6 mph    
Max Gust Speed -    
Visibility 9.9 miles    
Events      
Averages and records for this station are not official NWS values.
T = Trace of Precipitation, MM = Missing Value Source: Averaged Metar Reports

Daily Weather History Graph

Daily Weather History Graph

Search for Another Location

Airport or City:

Trip Planner

Search our weather history database for the weather conditions in past years. The results will help you decide how hot, cold, wet, or windy it might be!

Date:

Astronomy

Sep. 15, 2012 Rise Set
Actual Time 6:45 AM CDT 7:11 PM CDT
Civil Twilight 6:19 AM CDT 7:37 PM CDT
Nautical Twilight 5:48 AM CDT 8:09 PM CDT
Astronomical Twilight 5:16 AM CDT 8:40 PM CDT
Moon 6:16 AM CDT (9/15) 6:42 PM CDT (9/15)
Length of Visible Light 13h 18m
Length of Day
12h 25m
Waning Crescent, 0% of the Moon is Illuminated
Sep 15
Waning Crescent
Sep 15
New
Sep 22
First Quarter
Sep 29
Full
Oct 8
Last Quarter

Hourly Weather History & Observations

Time (CDT) Temp. Dew Point Humidity Pressure Visibility Wind Dir Wind Speed Gust Speed Precip Events Conditions
12:15 AM 55.4 °F 55.4 °F 100% 30.29 in 10.0 mi Calm Calm - N/A   Clear
12:35 AM 55.4 °F 55.4 °F 100% 30.29 in 9.0 mi Calm Calm - N/A   Clear
12:55 AM 55.4 °F 55.4 °F 100% 30.29 in 10.0 mi Calm Calm - N/A   Clear
1:15 AM 55.4 °F 55.4 °F 100% 30.29 in 10.0 mi Calm Calm - N/A   Clear
1:35 AM 55.4 °F 55.4 °F 100% 30.29 in 10.0 mi Calm Calm - N/A   Clear
1:55 AM 55.4 °F 55.4 °F 100% 30.29 in 10.0 mi Calm Calm - N/A   Clear
2:15 AM 55.4 °F 55.4 °F 100% 30.29 in 10.0 mi Calm Calm - N/A   Clear
2:35 AM 55.4 °F 55.4 °F 100% 30.29 in 10.0 mi Calm Calm - N/A   Clear
2:55 AM 55.4 °F 55.4 °F 100% 30.28 in 8.0 mi Calm Calm - N/A   Clear
3:15 AM 55.4 °F 55.4 °F 100% 30.28 in 10.0 mi Calm Calm - N/A   Clear
3:35 AM 55.4 °F 55.4 °F 100% 30.28 in 10.0 mi Calm Calm - N/A   Clear
4:15 AM 53.6 °F 53.6 °F 100% 30.28 in 10.0 mi Calm Calm - N/A   Clear
4:35 AM 53.6 °F 53.6 °F 100% 30.28 in 10.0 mi Calm Calm - N/A   Clear
4:55 AM 53.6 °F 53.6 °F 100% 30.28 in 8.0 mi Calm Calm - N/A   Clear
5:15 AM 53.6 °F 53.6 °F 100% 30.28 in 10.0 mi Calm Calm - N/A   Clear
5:35 AM 53.6 °F 53.6 °F 100% 30.29 in 10.0 mi Calm Calm - N/A   Clear
5:55 AM 53.6 °F 51.8 °F 94% 30.28 in 10.0 mi Calm Calm - N/A   Clear
6:15 AM 50.0 °F 50.0 °F 100% 30.29 in 10.0 mi Calm Calm - N/A   Clear
6:35 AM 50.0 °F 50.0 °F 100% 30.29 in 10.0 mi Calm Calm - N/A   Partly Cloudy
7:15 AM 50.0 °F 50.0 °F 100% 30.29 in 10.0 mi Calm Calm - N/A   Clear
7:35 AM 53.6 °F 53.6 °F 100% 30.29 in 10.0 mi Calm Calm - N/A   Partly Cloudy
7:55 AM 55.4 °F 55.4 °F 100% 30.30 in 10.0 mi Calm Calm - N/A   Clear
8:15 AM 57.2 °F 55.4 °F 94% 30.30 in 10.0 mi Calm Calm - N/A   Clear
8:35 AM 59.0 °F 51.8 °F 77% 30.29 in 10.0 mi SE 3.5 mph - N/A   Clear
8:55 AM 59.0 °F 51.8 °F 77% 30.29 in 10.0 mi SE 4.6 mph - N/A   Partly Cloudy
9:15 AM 60.8 °F 51.8 °F 72% 30.29 in 10.0 mi Calm Calm - N/A   Scattered Clouds
9:35 AM 62.6 °F 51.8 °F 68% 30.29 in 10.0 mi Calm Calm - N/A   Clear
9:55 AM 62.6 °F 51.8 °F 68% 30.29 in 10.0 mi Calm Calm - N/A   Clear
10:15 AM 62.6 °F 53.6 °F 72% 30.28 in 10.0 mi Calm Calm - N/A   Clear
10:35 AM 62.6 °F 53.6 °F 72% 30.29 in 10.0 mi Calm Calm - N/A   Clear
10:55 AM 62.6 °F 53.6 °F 72% 30.28 in 10.0 mi Calm Calm - N/A   Clear
11:15 AM 62.6 °F 51.8 °F 68% 30.27 in 10.0 mi SE 5.8 mph - N/A   Clear
11:35 AM 64.4 °F 51.8 °F 64% 30.28 in 10.0 mi SE 4.6 mph - N/A   Clear
11:55 AM 64.4 °F 51.8 °F 64% 30.27 in 10.0 mi SE 5.8 mph - N/A   Clear
12:15 PM 64.4 °F 51.8 °F 64% 30.27 in 10.0 mi SE 3.5 mph - N/A   Clear
12:35 PM 64.4 °F 51.8 °F 64% 30.27 in 10.0 mi Calm Calm - N/A   Clear
12:55 PM 64.4 °F 53.6 °F 68% 30.26 in 10.0 mi ESE 3.5 mph - N/A   Clear
1:15 PM 64.4 °F 53.6 °F 68% 30.26 in 10.0 mi Calm Calm - N/A   Partly Cloudy
1:55 PM 64.4 °F 53.6 °F 68% 30.24 in 10.0 mi ESE 4.6 mph - N/A   Clear
2:15 PM 64.4 °F 53.6 °F 68% 30.22 in 10.0 mi Calm Calm - N/A   Clear
2:35 PM 64.4 °F 53.6 °F 68% 30.22 in 10.0 mi Calm Calm - N/A   Clear
2:55 PM 64.4 °F 53.6 °F 68% 30.21 in 10.0 mi Calm Calm - N/A   Clear
3:15 PM 64.4 °F 53.6 °F 68% 30.21 in 10.0 mi Calm Calm - N/A   Clear
3:35 PM 66.2 °F 53.6 °F 64% 30.21 in 10.0 mi Calm Calm - N/A   Clear
3:55 PM 66.2 °F 53.6 °F 64% 30.19 in 10.0 mi Calm Calm - N/A   Clear
4:15 PM 66.2 °F 53.6 °F 64% 30.19 in 10.0 mi Calm Calm - N/A   Clear
4:35 PM 66.2 °F 53.6 °F 64% 30.19 in 10.0 mi Calm Calm - N/A   Clear
4:55 PM 66.2 °F 55.4 °F 68% 30.18 in 10.0 mi Calm Calm - N/A   Clear
5:15 PM 64.4 °F 55.4 °F 73% 30.18 in 10.0 mi Calm Calm - N/A   Clear
5:35 PM 66.2 °F 55.4 °F 68% 30.18 in 10.0 mi Calm Calm - N/A   Clear
5:55 PM 66.2 °F 57.2 °F 73% 30.18 in 10.0 mi Calm Calm - N/A   Clear
6:15 PM 64.4 °F 59.0 °F 83% 30.17 in 10.0 mi Calm Calm - N/A   Clear
6:35 PM 64.4 °F 59.0 °F 83% 30.16 in 10.0 mi Calm Calm - N/A   Clear
6:55 PM 62.6 °F 59.0 °F 88% 30.15 in 10.0 mi Calm Calm - N/A   Clear
7:15 PM 62.6 °F 57.2 °F 82% 30.15 in 10.0 mi Calm Calm - N/A   Clear
7:35 PM 60.8 °F 57.2 °F 88% 30.16 in 10.0 mi Calm Calm - N/A   Clear
7:55 PM 59.0 °F 57.2 °F 94% 30.16 in 10.0 mi Calm Calm - N/A   Clear
8:15 PM 59.0 °F 57.2 °F 94% 30.16 in 10.0 mi Calm Calm - N/A   Clear
8:35 PM 59.0 °F 57.2 °F 94% 30.16 in 10.0 mi Calm Calm - N/A   Clear
8:55 PM 57.2 °F 57.2 °F 100% 30.16 in 10.0 mi Calm Calm - N/A   Mostly Cloudy
9:15 PM 57.2 °F 57.2 °F 100% 30.16 in 10.0 mi Calm Calm - N/A   Overcast
9:35 PM 57.2 °F 57.2 °F 100% 30.16 in 10.0 mi Calm Calm - N/A   Overcast
9:55 PM 57.2 °F 57.2 °F 100% 30.16 in 10.0 mi Calm Calm - N/A   Overcast
10:15 PM 59.0 °F 57.2 °F 94% 30.16 in 10.0 mi Calm Calm - N/A   Overcast
10:35 PM 59.0 °F 57.2 °F 94% 30.16 in 10.0 mi Calm Calm - N/A   Overcast
10:55 PM 59.0 °F 57.2 °F 94% 30.15 in 10.0 mi Calm Calm - N/A   Overcast
11:15 PM 59.0 °F 59.0 °F 100% 30.15 in 10.0 mi Calm Calm - N/A   Overcast
11:35 PM 59.0 °F 57.2 °F 94% 30.15 in 10.0 mi Calm Calm - N/A   Overcast
11:55 PM 59.0 °F 57.2 °F 94% 30.14 in 10.0 mi Calm Calm - N/A   Overcast